Location: Buch
(49.7331°N, 12.1098°E)
Time: 08:33:50
(UTC+00:00)

Cosmos 2369 Rocket - Pass Details

Date: 12 May 2021
Orbit: 827 x 854 km, 71.0° (Epoch: 14 June)

Event Time Altitude Azimuth Distance (km) Brightness Sun altitude
Exits shadow 23:43:32 18° 251° (WSW) 1,942 3.8 -21.4°
Maximum altitude 23:47:11 38° 310° (NW) 1,268 3.3 -21.3°
Drops below altitude 10° 23:52:27 10° 18° (NNE) 2,473 5.8 -21.2°
Sets 23:55:06 0° 27° (NNE) 3,416 6.7 -21.1°
